Location: Newark
(43.4306°N, 0.3089°E)
Time: 12:07:34
(UTC+00:00)

SR - Pass Details

Date: 29 August 2019
Orbit: 576 x 879 km, 66.7° (Epoch: 15 September)

Event Time Altitude Azimuth Distance (km) Brightness Sun altitude
Rises 21:11:28 0° 311° (NW) 3,354 ? -25.0°
Reaches altitude 10° 21:14:49 10° 291° (WNW) 2,463 ? -25.4°
Maximum altitude 21:18:08 16° 255° (WSW) 2,098 ? -25.8°
Drops below altitude 10° 21:21:32 10° 219° (SW) 2,515 ? -26.3°
Enters shadow 21:22:08 - 215° (SW) 2,653 ? -26.4°
